Year,Month,Day,Hour,Minute,Value (Times are PST for temperature in C)
2009,08,20,00,00,20.30
2009,08,20,00,01,20.30
2009,08,20,00,02,20.30
2009,08,20,00,03,20.30
2009,08,20,00,04,20.30
2009,08,20,00,05,20.30
2009,08,20,00,06,20.30
2009,08,20,00,07,20.30
2009,08,20,00,08,20.30
2009,08,20,00,09,20.20
2009,08,20,00,10,20.20
2009,08,20,00,11,20.20
2009,08,20,00,12,20.20
2009,08,20,00,13,20.20
2009,08,20,00,14,20.20
2009,08,20,00,15,20.20
2009,08,20,00,16,20.20
2009,08,20,00,17,20.10
2009,08,20,00,18,20.10
2009,08,20,00,19,20.10
2009,08,20,00,20,20.10
2009,08,20,00,21,20.10
2009,08,20,00,22,20.10
2009,08,20,00,23,20.10
2009,08,20,00,24,20.10
2009,08,20,00,25,20.10
2009,08,20,00,26,20.10
2009,08,20,00,27,20.10
2009,08,20,00,28,20.10
2009,08,20,00,29,20.10
2009,08,20,00,30,20.10
2009,08,20,00,31,20.10
2009,08,20,00,32,20.10
2009,08,20,00,33,20.10
2009,08,20,00,34,20.00
2009,08,20,00,35,20.00
2009,08,20,00,36,20.00
2009,08,20,00,37,20.00
2009,08,20,00,38,20.00
2009,08,20,00,39,20.00
2009,08,20,00,40,20.00
2009,08,20,00,41,19.90
2009,08,20,00,42,19.90
2009,08,20,00,43,19.90
2009,08,20,00,44,19.90
2009,08,20,00,45,19.90
2009,08,20,00,46,19.90
2009,08,20,00,47,19.90
2009,08,20,00,48,19.80
2009,08,20,00,49,19.80
2009,08,20,00,50,19.80
2009,08,20,00,51,19.80
2009,08,20,00,52,19.80
2009,08,20,00,53,19.80
2009,08,20,00,54,19.80
2009,08,20,00,55,19.80
2009,08,20,00,56,19.80
2009,08,20,00,57,19.70
2009,08,20,00,58,19.70
2009,08,20,00,59,19.70
2009,08,20,01,00,19.70
2009,08,20,01,01,19.70
2009,08,20,01,02,19.70
2009,08,20,01,03,19.70
2009,08,20,01,04,19.70
2009,08,20,01,05,19.60
2009,08,20,01,06,19.60
2009,08,20,01,07,19.60
2009,08,20,01,08,19.60
2009,08,20,01,09,19.50
2009,08,20,01,10,19.50
2009,08,20,01,11,19.50
2009,08,20,01,12,19.40
2009,08,20,01,13,19.40
2009,08,20,01,14,19.40
2009,08,20,01,15,19.30
2009,08,20,01,16,19.30
2009,08,20,01,17,19.30
2009,08,20,01,18,19.30
2009,08,20,01,19,19.20
2009,08,20,01,20,19.20
2009,08,20,01,21,19.20
2009,08,20,01,22,19.20
2009,08,20,01,23,19.20
2009,08,20,01,24,19.20
2009,08,20,01,25,19.20
2009,08,20,01,26,19.20
2009,08,20,01,27,19.20
2009,08,20,01,28,19.20
2009,08,20,01,29,19.20
2009,08,20,01,30,19.20
2009,08,20,01,31,19.10
2009,08,20,01,32,19.10
2009,08,20,01,33,19.10
2009,08,20,01,34,19.10
2009,08,20,01,35,19.10
2009,08,20,01,36,19.10
2009,08,20,01,37,19.10
2009,08,20,01,38,19.10
2009,08,20,01,39,19.00
2009,08,20,01,40,19.00
2009,08,20,01,41,18.90
2009,08,20,01,42,18.90
2009,08,20,01,43,18.90
2009,08,20,01,44,18.80
2009,08,20,01,45,18.80
2009,08,20,01,46,18.80
2009,08,20,01,47,18.80
2009,08,20,01,48,18.80
2009,08,20,01,49,18.80
2009,08,20,01,50,18.80
2009,08,20,01,51,18.80
2009,08,20,01,52,18.70
2009,08,20,01,53,18.70
2009,08,20,01,54,18.70
2009,08,20,01,55,18.70
2009,08,20,01,56,18.70
2009,08,20,01,57,18.70
2009,08,20,01,58,18.70
2009,08,20,01,59,18.70
2009,08,20,02,00,18.70
2009,08,20,02,01,18.70
2009,08,20,02,02,18.70
2009,08,20,02,03,18.70
2009,08,20,02,04,18.70
2009,08,20,02,05,18.70
2009,08,20,02,06,18.70
2009,08,20,02,07,18.80
2009,08,20,02,08,18.80
2009,08,20,02,09,18.80
2009,08,20,02,10,18.70
2009,08,20,02,11,18.70
2009,08,20,02,12,18.70
2009,08,20,02,13,18.70
2009,08,20,02,14,18.70
2009,08,20,02,15,18.70
2009,08,20,02,16,18.70
2009,08,20,02,17,18.70
2009,08,20,02,18,18.70
2009,08,20,02,19,18.70
2009,08,20,02,20,18.70
2009,08,20,02,21,18.70
2009,08,20,02,22,18.60
2009,08,20,02,23,18.60
2009,08,20,02,24,18.60
2009,08,20,02,25,18.60
2009,08,20,02,26,18.50
2009,08,20,02,27,18.50
2009,08,20,02,28,18.50
2009,08,20,02,29,18.50
2009,08,20,02,30,18.40
2009,08,20,02,31,18.40
2009,08,20,02,32,18.40
2009,08,20,02,33,18.40
2009,08,20,02,34,18.40
2009,08,20,02,35,18.40
2009,08,20,02,36,18.40
2009,08,20,02,37,18.40
2009,08,20,02,38,18.40
2009,08,20,02,39,18.40
2009,08,20,02,40,18.30
2009,08,20,02,41,18.30
2009,08,20,02,42,18.30
2009,08,20,02,43,18.30
2009,08,20,02,44,18.30
2009,08,20,02,45,18.20
2009,08,20,02,46,18.20
2009,08,20,02,47,18.20
2009,08,20,02,48,18.20
2009,08,20,02,49,18.20
2009,08,20,02,50,18.10
2009,08,20,02,51,18.10
2009,08,20,02,52,18.10
2009,08,20,02,53,18.10
2009,08,20,02,54,18.00
2009,08,20,02,55,18.00
2009,08,20,02,56,17.90
2009,08,20,02,57,17.90
2009,08,20,02,58,17.90
2009,08,20,02,59,17.80
2009,08,20,03,00,17.80
2009,08,20,03,01,17.80
2009,08,20,03,02,17.80
2009,08,20,03,06,17.70
2009,08,20,03,07,17.60
2009,08,20,03,08,17.60
2009,08,20,03,09,17.60
2009,08,20,03,10,17.60
2009,08,20,03,11,17.50
2009,08,20,03,12,17.50
2009,08,20,03,13,17.40
2009,08,20,03,14,17.40
2009,08,20,03,15,17.40
2009,08,20,03,16,17.30
2009,08,20,03,17,17.30
2009,08,20,03,18,17.30
2009,08,20,03,19,17.20
2009,08,20,03,20,17.20
2009,08,20,03,21,17.20
2009,08,20,03,22,17.10
2009,08,20,03,23,17.10
2009,08,20,03,24,17.10
2009,08,20,03,25,17.10
2009,08,20,03,26,17.00
2009,08,20,03,27,17.00
2009,08,20,03,28,17.00
2009,08,20,03,29,16.90
2009,08,20,03,30,16.90
2009,08,20,03,31,16.90
2009,08,20,03,32,16.90
2009,08,20,03,33,16.80
2009,08,20,03,34,16.80
2009,08,20,03,35,16.80
2009,08,20,03,36,16.80
2009,08,20,03,37,16.80
2009,08,20,03,38,16.80
2009,08,20,03,39,16.80
2009,08,20,03,40,16.80
2009,08,20,03,41,16.70
2009,08,20,03,42,16.70
2009,08,20,03,43,16.70
2009,08,20,03,44,16.70
2009,08,20,03,45,16.70
2009,08,20,03,46,16.70
2009,08,20,03,47,16.70
2009,08,20,03,48,16.70
2009,08,20,03,49,16.70
2009,08,20,03,50,16.70
2009,08,20,03,51,16.70
2009,08,20,03,52,16.70
2009,08,20,03,53,16.70
2009,08,20,03,54,16.70
2009,08,20,03,55,16.70
2009,08,20,03,56,16.70
2009,08,20,03,57,16.70
2009,08,20,03,58,16.70
2009,08,20,03,59,16.70
2009,08,20,04,00,16.70
2009,08,20,04,01,16.70
2009,08,20,04,02,16.60
2009,08,20,04,03,16.60
2009,08,20,04,04,16.60
2009,08,20,04,05,16.60
2009,08,20,04,06,16.60
2009,08,20,04,07,16.60
2009,08,20,04,08,16.60
2009,08,20,04,09,16.50
2009,08,20,04,10,16.50
2009,08,20,04,11,16.50
2009,08,20,04,12,16.50
2009,08,20,04,13,16.50
2009,08,20,04,14,16.50
2009,08,20,04,15,16.40
2009,08,20,04,16,16.40
2009,08,20,04,17,16.40
2009,08,20,04,18,16.40
2009,08,20,04,19,16.40
2009,08,20,04,20,16.40
2009,08,20,04,21,16.40
2009,08,20,04,22,16.40
2009,08,20,04,23,16.40
2009,08,20,04,24,16.40
2009,08,20,04,25,16.30
2009,08,20,04,26,16.30
2009,08,20,04,27,16.30
2009,08,20,04,28,16.30
2009,08,20,04,29,16.30
2009,08,20,04,30,16.30
2009,08,20,04,31,16.30
2009,08,20,04,32,16.30
2009,08,20,04,33,16.30
2009,08,20,04,34,16.30
2009,08,20,04,35,16.30
2009,08,20,04,36,16.30
2009,08,20,04,37,16.30
2009,08,20,04,38,16.30
2009,08,20,04,39,16.30
2009,08,20,04,40,16.30
2009,08,20,04,41,16.30
2009,08,20,04,42,16.30
2009,08,20,04,43,16.30
2009,08,20,04,44,16.30
2009,08,20,04,45,16.20
2009,08,20,04,46,16.20
2009,08,20,04,47,16.20
2009,08,20,04,48,16.20
2009,08,20,04,49,16.20
2009,08,20,04,50,16.20
2009,08,20,04,51,16.20
2009,08,20,04,52,16.20
2009,08,20,04,53,16.20
2009,08,20,04,54,16.20
2009,08,20,04,55,16.20
2009,08,20,04,56,16.20
2009,08,20,04,57,16.20
2009,08,20,04,58,16.20
2009,08,20,04,59,16.20
2009,08,20,05,00,16.20
2009,08,20,05,01,16.20
2009,08,20,05,02,16.20
2009,08,20,05,03,16.20
2009,08,20,05,04,16.20
2009,08,20,05,05,16.20
2009,08,20,05,06,16.20
2009,08,20,05,07,16.20
2009,08,20,05,08,16.20
2009,08,20,05,09,16.20
2009,08,20,05,10,16.10
2009,08,20,05,11,16.10
2009,08,20,05,12,16.10
2009,08,20,05,13,16.10
2009,08,20,05,14,16.00
2009,08,20,05,15,16.00
2009,08,20,05,16,16.00
2009,08,20,05,17,16.00
2009,08,20,05,18,16.00
2009,08,20,05,19,16.00
2009,08,20,05,20,16.00
2009,08,20,05,21,15.90
2009,08,20,05,22,15.90
2009,08,20,05,23,15.90
2009,08,20,05,24,15.90
2009,08,20,05,25,15.90
2009,08,20,05,26,15.90
2009,08,20,05,27,15.90
2009,08,20,05,28,15.90
2009,08,20,05,29,15.90
2009,08,20,05,30,15.90
2009,08,20,05,31,15.90
2009,08,20,05,32,15.80
2009,08,20,05,33,15.80
2009,08,20,05,34,15.80
2009,08,20,05,35,15.80
2009,08,20,05,36,15.80
2009,08,20,05,37,15.80
2009,08,20,05,38,15.80
2009,08,20,05,39,15.80
2009,08,20,05,40,15.80
2009,08,20,05,41,15.80
2009,08,20,05,42,15.80
2009,08,20,05,43,15.80
2009,08,20,05,44,15.80
2009,08,20,05,45,15.70
2009,08,20,05,46,15.70
2009,08,20,05,47,15.70
2009,08,20,05,48,15.70
2009,08,20,05,49,15.70
2009,08,20,05,50,15.70
2009,08,20,05,51,15.70
2009,08,20,05,52,15.70
2009,08,20,05,53,15.70
2009,08,20,05,54,15.70
2009,08,20,05,55,15.70
2009,08,20,05,56,15.70
2009,08,20,05,57,15.70
2009,08,20,05,58,15.70
2009,08,20,05,59,15.70
2009,08,20,06,00,15.70
2009,08,20,06,01,15.60
2009,08,20,06,02,15.60
2009,08,20,06,03,15.60
2009,08,20,06,04,15.60
2009,08,20,06,05,15.60
2009,08,20,06,06,15.60
2009,08,20,06,07,15.60
2009,08,20,06,08,15.50
2009,08,20,06,09,15.50
2009,08,20,06,10,15.50
2009,08,20,06,11,15.50
2009,08,20,06,12,15.50
2009,08,20,06,13,15.50
2009,08,20,06,14,15.50
2009,08,20,06,15,15.50
2009,08,20,06,16,15.50
2009,08,20,06,17,15.50
2009,08,20,06,18,15.50
2009,08,20,06,19,15.50
2009,08,20,06,20,15.50
2009,08,20,06,21,15.50
2009,08,20,06,22,15.50
2009,08,20,06,23,15.50
2009,08,20,06,24,15.40
2009,08,20,06,25,15.40
2009,08,20,06,26,15.40
2009,08,20,06,27,15.40
2009,08,20,06,28,15.40
2009,08,20,06,29,15.40
2009,08,20,06,30,15.40
2009,08,20,06,31,15.40
2009,08,20,06,32,15.40
2009,08,20,06,33,15.30
2009,08,20,06,34,15.30
2009,08,20,06,35,15.30
2009,08,20,06,36,15.30
2009,08,20,06,37,15.30
2009,08,20,06,38,15.20
2009,08,20,06,39,15.20
2009,08,20,06,40,15.20
2009,08,20,06,41,15.20
2009,08,20,06,42,15.20
2009,08,20,06,43,15.20
2009,08,20,06,44,15.20
2009,08,20,06,45,15.20
2009,08,20,06,46,15.20
2009,08,20,06,47,15.20
2009,08,20,06,48,15.20
2009,08,20,06,49,15.30
2009,08,20,06,50,15.30
2009,08,20,06,51,15.30
2009,08,20,06,52,15.40
2009,08,20,06,53,15.40
2009,08,20,06,54,15.40
2009,08,20,06,55,15.50
2009,08,20,06,56,15.50
2009,08,20,06,57,15.50
2009,08,20,06,58,15.60
2009,08,20,06,59,15.60
2009,08,20,07,00,15.60
2009,08,20,07,01,15.70
2009,08,20,07,02,15.70
2009,08,20,07,03,15.70
2009,08,20,07,04,15.80
2009,08,20,07,05,15.80
2009,08,20,07,06,15.80
2009,08,20,07,07,15.80
2009,08,20,07,08,15.80
2009,08,20,07,09,15.80
2009,08,20,07,10,15.90
2009,08,20,07,11,15.90
2009,08,20,07,12,15.90
2009,08,20,07,13,16.00
2009,08,20,07,14,16.00
2009,08,20,07,15,16.10
2009,08,20,07,16,16.10
2009,08,20,07,17,16.20
2009,08,20,07,18,16.20
2009,08,20,07,19,16.20
2009,08,20,07,20,16.30
2009,08,20,07,21,16.30
2009,08,20,07,22,16.30
2009,08,20,07,23,16.30
2009,08,20,07,24,16.30
2009,08,20,07,25,16.40
2009,08,20,07,26,16.40
2009,08,20,07,27,16.40
2009,08,20,07,28,16.40
2009,08,20,07,29,16.40
2009,08,20,07,30,16.40
2009,08,20,07,31,16.50
2009,08,20,07,32,16.50
2009,08,20,07,33,16.50
2009,08,20,07,34,16.60
2009,08,20,07,35,16.60
2009,08,20,07,36,16.60
2009,08,20,07,37,16.60
2009,08,20,07,38,16.60
2009,08,20,07,39,16.60
2009,08,20,07,40,16.60
2009,08,20,07,41,16.60
2009,08,20,07,42,16.60
2009,08,20,07,43,16.60
2009,08,20,07,44,16.60
2009,08,20,07,45,16.60
2009,08,20,07,46,16.60
2009,08,20,07,47,16.70
2009,08,20,07,48,16.70
2009,08,20,07,49,16.70
2009,08,20,07,50,16.70
2009,08,20,07,51,16.70
2009,08,20,07,52,16.70
2009,08,20,07,53,16.70
2009,08,20,07,54,16.70
2009,08,20,07,55,16.70
2009,08,20,07,56,16.80
2009,08,20,07,57,16.80
2009,08,20,07,58,16.80
2009,08,20,07,59,16.90
2009,08,20,08,00,16.90
2009,08,20,08,01,16.90
2009,08,20,08,02,17.00
2009,08,20,08,03,16.90
2009,08,20,08,04,16.90
2009,08,20,08,05,16.90
2009,08,20,08,06,16.90
2009,08,20,08,07,16.90
2009,08,20,08,08,16.90
2009,08,20,08,09,16.80
2009,08,20,08,10,16.80
2009,08,20,08,11,16.80
2009,08,20,08,12,16.80
2009,08,20,08,13,16.80
2009,08,20,08,14,16.80
2009,08,20,08,15,16.80
2009,08,20,08,16,16.80
2009,08,20,08,17,16.80
2009,08,20,08,18,16.90
2009,08,20,08,19,16.90
2009,08,20,08,20,16.90
2009,08,20,08,21,17.00
2009,08,20,08,22,17.10
2009,08,20,08,23,17.10
2009,08,20,08,24,17.10
2009,08,20,08,25,17.20
2009,08,20,08,26,17.20
2009,08,20,08,27,17.30
2009,08,20,08,28,17.30
2009,08,20,08,29,17.40
2009,08,20,08,30,17.40
2009,08,20,08,31,17.50
2009,08,20,08,32,17.60
2009,08,20,08,33,17.60
2009,08,20,08,34,17.70
2009,08,20,08,35,17.70
2009,08,20,08,36,17.70
2009,08,20,08,37,17.80
2009,08,20,08,38,17.70
2009,08,20,08,39,17.70
2009,08,20,08,40,17.70
2009,08,20,08,41,17.70
2009,08,20,08,42,17.80
2009,08,20,08,43,17.80
2009,08,20,08,44,17.90
2009,08,20,08,45,17.90
2009,08,20,08,46,17.90
2009,08,20,08,47,17.90
2009,08,20,08,48,17.90
2009,08,20,08,49,17.90
2009,08,20,08,50,17.90
2009,08,20,08,51,17.90
2009,08,20,08,52,18.00
2009,08,20,08,53,18.00
2009,08,20,08,54,18.10
2009,08,20,08,55,18.10
2009,08,20,08,56,18.10
2009,08,20,08,57,18.20
2009,08,20,08,58,18.20
2009,08,20,08,59,18.20
2009,08,20,09,00,18.20
2009,08,20,09,01,18.20
2009,08,20,09,02,18.30
2009,08,20,09,03,18.30
2009,08,20,09,04,18.20
2009,08,20,09,05,18.20
2009,08,20,09,06,18.20
2009,08,20,09,07,18.10
2009,08,20,09,08,18.10
2009,08,20,09,09,18.00
2009,08,20,09,10,18.00
2009,08,20,09,11,18.00
2009,08,20,09,12,18.10
2009,08,20,09,13,18.10
2009,08,20,09,14,18.10
2009,08,20,09,15,18.20
2009,08,20,09,16,18.20
2009,08,20,09,17,18.20
2009,08,20,09,18,18.30
2009,08,20,09,19,18.30
2009,08,20,09,20,18.30
2009,08,20,09,21,18.30
2009,08,20,09,22,18.40
2009,08,20,09,23,18.40
2009,08,20,09,24,18.40
2009,08,20,09,25,18.40
2009,08,20,09,26,18.40
2009,08,20,09,27,18.50
2009,08,20,09,28,18.60
2009,08,20,09,29,18.60
2009,08,20,09,30,18.60
2009,08,20,09,31,18.60
2009,08,20,09,32,18.70
2009,08,20,09,33,18.70
2009,08,20,09,34,18.70
2009,08,20,09,35,18.70
2009,08,20,09,36,18.70
2009,08,20,09,37,18.80
2009,08,20,09,38,18.80
2009,08,20,09,39,18.90
2009,08,20,09,40,19.00
2009,08,20,09,41,19.10
2009,08,20,09,42,19.20
2009,08,20,09,43,19.30
2009,08,20,09,44,19.40
2009,08,20,09,45,19.40
2009,08,20,09,46,19.50
2009,08,20,09,47,19.60
2009,08,20,09,48,19.60
2009,08,20,09,49,19.70
2009,08,20,09,50,19.70
2009,08,20,09,51,19.80
2009,08,20,09,52,19.90
2009,08,20,09,53,20.00
2009,08,20,09,54,20.00
2009,08,20,09,55,20.10
2009,08,20,09,56,20.10
2009,08,20,09,57,20.20
2009,08,20,09,58,20.20
2009,08,20,09,59,20.20
2009,08,20,10,00,20.30
2009,08,20,10,01,20.40
2009,08,20,10,02,20.40
2009,08,20,10,03,20.50
2009,08,20,10,04,20.50
2009,08,20,10,05,20.50
2009,08,20,10,06,20.40
2009,08,20,10,07,20.40
2009,08,20,10,08,20.30
2009,08,20,10,09,20.20
2009,08,20,10,10,20.20
2009,08,20,10,11,20.20
2009,08,20,10,12,20.20
2009,08,20,10,13,20.10
2009,08,20,10,14,20.10
2009,08,20,10,15,20.10
2009,08,20,10,16,20.00
2009,08,20,10,17,20.00
2009,08,20,10,18,20.00
2009,08,20,10,19,20.00
2009,08,20,10,20,20.00
2009,08,20,10,21,20.00
2009,08,20,10,22,20.00
2009,08,20,10,23,20.00
2009,08,20,10,24,20.00
2009,08,20,10,25,19.90
2009,08,20,10,26,19.90
2009,08,20,10,27,19.90
2009,08,20,10,28,19.90
2009,08,20,10,29,20.00
2009,08,20,10,30,20.10
2009,08,20,10,31,20.10
2009,08,20,10,32,20.20
2009,08,20,10,33,20.40
2009,08,20,10,34,20.50
2009,08,20,10,35,20.60
2009,08,20,10,36,20.60
2009,08,20,10,37,20.70
2009,08,20,10,38,20.70
2009,08,20,10,39,20.80
2009,08,20,10,40,20.80
2009,08,20,10,41,20.80
2009,08,20,10,42,20.70
2009,08,20,10,43,20.60
2009,08,20,10,44,20.50
2009,08,20,10,45,20.40
2009,08,20,10,46,20.30
2009,08,20,10,47,20.20
2009,08,20,10,48,20.10
2009,08,20,10,49,20.00
2009,08,20,10,50,19.90
2009,08,20,10,51,19.90
2009,08,20,10,52,19.80
2009,08,20,10,53,19.80
2009,08,20,10,54,19.70
2009,08,20,10,55,19.70
2009,08,20,10,56,19.70
2009,08,20,10,57,19.70
2009,08,20,10,58,19.70
2009,08,20,10,59,19.80
2009,08,20,11,00,19.80
2009,08,20,11,01,19.80
2009,08,20,11,02,19.90
2009,08,20,11,03,19.90
2009,08,20,11,04,19.80
2009,08,20,11,05,19.80
2009,08,20,11,06,19.80
2009,08,20,11,07,19.80
2009,08,20,11,08,19.90
2009,08,20,11,09,19.90
2009,08,20,11,10,20.00
2009,08,20,11,11,20.00
2009,08,20,11,12,19.90
2009,08,20,11,13,19.80
2009,08,20,11,14,19.80
2009,08,20,11,15,19.70
2009,08,20,11,16,19.70
2009,08,20,11,17,19.60
2009,08,20,11,18,19.40
2009,08,20,11,19,19.30
2009,08,20,11,20,19.10
2009,08,20,11,21,19.00
2009,08,20,11,22,18.80
2009,08,20,11,23,18.70
2009,08,20,11,24,18.70
2009,08,20,11,25,18.70
2009,08,20,11,26,18.70
2009,08,20,11,27,18.70
2009,08,20,11,28,18.80
2009,08,20,11,29,18.90
2009,08,20,11,30,18.90
2009,08,20,11,31,19.00
2009,08,20,11,32,19.00
2009,08,20,11,33,19.10
2009,08,20,11,34,19.20
2009,08,20,11,35,19.30
2009,08,20,11,36,19.40
2009,08,20,11,37,19.50
2009,08,20,11,38,19.60
2009,08,20,11,39,19.60
2009,08,20,11,40,19.60
2009,08,20,11,41,19.70
2009,08,20,11,42,19.70
2009,08,20,11,43,19.80
2009,08,20,11,44,19.80
2009,08,20,11,45,19.80
2009,08,20,11,46,19.80
2009,08,20,11,47,19.80
2009,08,20,11,48,19.80
2009,08,20,11,49,19.80
2009,08,20,11,50,19.90
2009,08,20,11,51,20.00
2009,08,20,11,52,20.10
2009,08,20,11,53,20.10
2009,08,20,11,54,20.10
2009,08,20,11,55,20.00
2009,08,20,11,56,19.90
2009,08,20,11,57,19.90
2009,08,20,11,58,19.90
2009,08,20,11,59,19.90
2009,08,20,12,00,20.00
2009,08,20,12,01,20.00
2009,08,20,12,02,20.10
2009,08,20,12,03,20.20
2009,08,20,12,04,20.30
2009,08,20,12,05,20.40
2009,08,20,12,06,20.50
2009,08,20,12,07,20.60
2009,08,20,12,08,20.60
2009,08,20,12,09,20.70
2009,08,20,12,10,20.70
2009,08,20,12,11,20.80
2009,08,20,12,12,20.80
2009,08,20,12,13,20.80
2009,08,20,12,14,20.70
2009,08,20,12,15,20.70
2009,08,20,12,16,20.60
2009,08,20,12,17,20.60
2009,08,20,12,18,20.70
2009,08,20,12,19,20.70
2009,08,20,12,20,20.80
2009,08,20,12,21,20.80
2009,08,20,12,22,20.90
2009,08,20,12,23,20.90
2009,08,20,12,24,21.00
2009,08,20,12,25,21.10
2009,08,20,12,26,21.20
2009,08,20,12,27,21.30
2009,08,20,12,28,21.40
2009,08,20,12,29,21.50
2009,08,20,12,30,21.60
2009,08,20,12,31,21.70
2009,08,20,12,32,21.80
2009,08,20,12,33,21.90
2009,08,20,12,34,21.90
2009,08,20,12,35,21.90
2009,08,20,12,36,21.90
2009,08,20,12,37,21.90
2009,08,20,12,38,22.00
2009,08,20,12,39,22.00
2009,08,20,12,40,22.10
2009,08,20,12,41,22.20
2009,08,20,12,42,22.30
2009,08,20,12,43,22.40
2009,08,20,12,44,22.60
2009,08,20,12,45,22.70
2009,08,20,12,46,22.70
2009,08,20,12,47,22.80
2009,08,20,12,48,22.80
2009,08,20,12,49,22.80
2009,08,20,12,50,22.80
2009,08,20,12,51,22.70
2009,08,20,12,52,22.70
2009,08,20,12,53,22.60
2009,08,20,12,54,22.60
2009,08,20,12,55,22.60
2009,08,20,12,56,22.60
2009,08,20,12,57,22.50
2009,08,20,12,58,22.40
2009,08,20,12,59,22.30
2009,08,20,13,00,22.40
2009,08,20,13,01,22.40
2009,08,20,13,02,22.40
2009,08,20,13,03,22.40
2009,08,20,13,04,22.30
2009,08,20,13,05,22.30
2009,08,20,13,06,22.30
2009,08,20,13,07,22.30
2009,08,20,13,08,22.30
2009,08,20,13,09,22.30
2009,08,20,13,10,22.30
2009,08,20,13,11,22.30
2009,08,20,13,12,22.30
2009,08,20,13,13,22.30
2009,08,20,13,14,22.30
2009,08,20,13,15,22.30
2009,08,20,13,16,22.30
2009,08,20,13,17,22.20
2009,08,20,13,18,22.20
2009,08,20,13,19,22.20
2009,08,20,13,20,22.30
2009,08,20,13,21,22.30
2009,08,20,13,22,22.30
2009,08,20,13,23,22.30
2009,08,20,13,24,22.30
2009,08,20,13,25,22.30
2009,08,20,13,26,22.30
2009,08,20,13,27,22.40
2009,08,20,13,28,22.40
2009,08,20,13,29,22.40
2009,08,20,13,30,22.40
2009,08,20,13,31,22.40
2009,08,20,13,32,22.40
2009,08,20,13,33,22.50
2009,08,20,13,34,22.60
2009,08,20,13,35,22.60
2009,08,20,13,36,22.70
2009,08,20,13,37,22.70
2009,08,20,13,38,22.70
2009,08,20,13,39,22.80
2009,08,20,13,40,22.80
2009,08,20,13,41,22.70
2009,08,20,13,42,22.60
2009,08,20,13,43,22.60
2009,08,20,13,44,22.70
2009,08,20,13,45,22.80
2009,08,20,13,46,22.80
2009,08,20,13,47,22.80
2009,08,20,13,48,22.70
2009,08,20,13,49,22.70
2009,08,20,13,50,22.70
2009,08,20,13,51,22.60
2009,08,20,13,52,22.60
2009,08,20,13,53,22.60
2009,08,20,13,54,22.50
2009,08,20,13,55,22.50
2009,08,20,13,56,22.50
2009,08,20,13,57,22.50
2009,08,20,13,58,22.60
2009,08,20,13,59,22.70
2009,08,20,14,00,22.70
2009,08,20,14,01,22.80
2009,08,20,14,02,22.70
2009,08,20,14,03,22.70
2009,08,20,14,04,22.70
2009,08,20,14,05,22.60
2009,08,20,14,06,22.60
2009,08,20,14,07,22.60
2009,08,20,14,08,22.60
2009,08,20,14,09,22.60
2009,08,20,14,10,22.70
2009,08,20,14,11,22.70
2009,08,20,14,12,22.70
2009,08,20,14,13,22.80
2009,08,20,14,14,22.80
2009,08,20,14,15,22.80
2009,08,20,14,16,22.80
2009,08,20,14,17,22.90
2009,08,20,14,18,22.90
2009,08,20,14,19,22.80
2009,08,20,14,20,22.80
2009,08,20,14,21,22.80
2009,08,20,14,22,22.80
2009,08,20,14,23,22.90
2009,08,20,14,24,22.90
2009,08,20,14,25,23.00
2009,08,20,14,26,23.00
2009,08,20,14,27,23.00
2009,08,20,14,28,22.90
2009,08,20,14,29,22.80
2009,08,20,14,30,22.80
2009,08,20,14,31,22.80
2009,08,20,14,32,22.80
2009,08,20,14,33,22.90
2009,08,20,14,34,22.90
2009,08,20,14,35,23.00
2009,08,20,14,36,23.00
2009,08,20,14,37,23.00
2009,08,20,14,38,23.00
2009,08,20,14,39,23.00
2009,08,20,14,40,23.00
2009,08,20,14,41,23.00
2009,08,20,14,42,23.00
2009,08,20,14,43,23.00
2009,08,20,14,44,23.00
2009,08,20,14,45,23.00
2009,08,20,14,46,23.00
2009,08,20,14,47,23.00
2009,08,20,14,48,22.90
2009,08,20,14,49,22.90
2009,08,20,14,50,22.90
2009,08,20,14,51,22.90
2009,08,20,14,52,23.00
2009,08,20,14,53,23.00
2009,08,20,14,54,23.10
2009,08,20,14,55,23.00
2009,08,20,14,56,23.00
2009,08,20,14,57,23.00
2009,08,20,14,58,23.00
2009,08,20,14,59,23.10
2009,08,20,15,00,23.10
2009,08,20,15,01,23.10
2009,08,20,15,02,23.00
2009,08,20,15,03,23.00
2009,08,20,15,04,23.00
2009,08,20,15,05,23.00
2009,08,20,15,06,22.90
2009,08,20,15,07,22.90
2009,08,20,15,08,22.80
2009,08,20,15,09,22.80
2009,08,20,15,10,22.80
2009,08,20,15,11,22.80
2009,08,20,15,12,22.80
2009,08,20,15,13,22.80
2009,08,20,15,14,22.80
2009,08,20,15,15,22.80
2009,08,20,15,16,22.80
2009,08,20,15,17,22.80
2009,08,20,15,18,22.70
2009,08,20,15,19,22.70
2009,08,20,15,20,22.70
2009,08,20,15,21,22.70
2009,08,20,15,22,22.70
2009,08,20,15,23,22.70
2009,08,20,15,24,22.70
2009,08,20,15,25,22.70
2009,08,20,15,26,22.80
2009,08,20,15,27,22.80
2009,08,20,15,28,22.80
2009,08,20,15,29,22.80
2009,08,20,15,30,22.80
2009,08,20,15,31,22.80
2009,08,20,15,32,22.70
2009,08,20,15,33,22.70
2009,08,20,15,34,22.60
2009,08,20,15,35,22.60
2009,08,20,15,36,22.50
2009,08,20,15,37,22.50
2009,08,20,15,38,22.50
2009,08,20,15,39,22.50
2009,08,20,15,40,22.50
2009,08,20,15,41,22.50
2009,08,20,15,42,22.50
2009,08,20,15,43,22.60
2009,08,20,15,44,22.60
2009,08,20,15,45,22.60
2009,08,20,15,46,22.60
2009,08,20,15,47,22.60
2009,08,20,15,48,22.60
2009,08,20,15,49,22.70
2009,08,20,15,50,22.80
2009,08,20,15,51,22.90
2009,08,20,15,52,22.90
2009,08,20,15,53,22.90
2009,08,20,15,54,23.00
2009,08,20,15,55,23.00
2009,08,20,15,56,23.00
2009,08,20,15,57,23.00
2009,08,20,15,58,22.90
2009,08,20,15,59,22.90
2009,08,20,16,00,22.80
2009,08,20,16,01,22.70
2009,08,20,16,02,22.70
2009,08,20,16,03,22.70
2009,08,20,16,04,22.70
2009,08,20,16,05,22.80
2009,08,20,16,06,22.80
2009,08,20,16,07,22.80
2009,08,20,16,08,22.90
2009,08,20,16,09,22.90
2009,08,20,16,10,22.90
2009,08,20,16,11,22.90
2009,08,20,16,12,22.90
2009,08,20,16,13,22.90
2009,08,20,16,14,23.00
2009,08,20,16,15,23.10
2009,08,20,16,16,23.10
2009,08,20,16,17,23.20
2009,08,20,16,18,23.20
2009,08,20,16,19,23.30
2009,08,20,16,20,23.30
2009,08,20,16,21,23.30
2009,08,20,16,22,23.30
2009,08,20,16,23,23.40
2009,08,20,16,24,23.50
2009,08,20,16,25,23.60
2009,08,20,16,26,23.60
2009,08,20,16,27,23.60
2009,08,20,16,28,23.70
2009,08,20,16,29,23.70
2009,08,20,16,30,23.70
2009,08,20,16,31,23.80
2009,08,20,16,32,23.80
2009,08,20,16,33,23.80
2009,08,20,16,34,23.80
2009,08,20,16,35,23.80
2009,08,20,16,36,23.80
2009,08,20,16,37,23.80
2009,08,20,16,38,23.90
2009,08,20,16,39,23.90
2009,08,20,16,40,23.90
2009,08,20,16,41,24.00
2009,08,20,16,42,24.00
2009,08,20,16,43,24.00
2009,08,20,16,44,24.00
2009,08,20,16,45,24.10
2009,08,20,16,46,24.10
2009,08,20,16,47,24.10
2009,08,20,16,48,24.10
2009,08,20,16,49,24.10
2009,08,20,16,50,24.10
2009,08,20,16,51,24.00
2009,08,20,16,52,24.00
2009,08,20,16,53,24.00
2009,08,20,16,54,24.00
2009,08,20,16,55,24.00
2009,08,20,16,56,24.00
2009,08,20,16,57,23.90
2009,08,20,16,58,23.90
2009,08,20,16,59,23.90
2009,08,20,17,00,23.80
2009,08,20,17,01,23.70
2009,08,20,17,02,23.60
2009,08,20,17,03,23.60
2009,08,20,17,04,23.60
2009,08,20,17,05,23.60
2009,08,20,17,06,23.70
2009,08,20,17,07,23.70
2009,08,20,17,08,23.80
2009,08,20,17,09,23.80
2009,08,20,17,10,23.90
2009,08,20,17,11,24.00
2009,08,20,17,12,24.00
2009,08,20,17,13,24.00
2009,08,20,17,14,24.00
2009,08,20,17,15,23.90
2009,08,20,17,16,23.90
2009,08,20,17,17,23.90
2009,08,20,17,18,23.90
2009,08,20,17,19,23.80
2009,08,20,17,20,23.80
2009,08,20,17,21,23.70
2009,08,20,17,22,23.60